This is the latest recevied weather packets stored in our database for station/object SP1BMW-13. If no packets are shown the sender has not sent any weather packets the latest 10 day(s).
| Time | Temp. | Humidity | Pressure | Rain* | Wind** | Luminosity | Snow |
|---|---|---|---|---|---|---|---|
| 1787855476 | 21.11° C | 49% | 1017 hPa | 0 mm | 0.45 m/s, 106° | 0 W/m² | - |
| 1787855416 | 21.11° C | 48% | 1017 hPa | 0 mm | 0.45 m/s, 271° | 0 W/m² | - |
| 1787855356 | 21.67° C | 48% | 1017.1 hPa | 0 mm | 0.45 m/s, 51° | 0 W/m² | - |
| 1787855297 | 21.67° C | 48% | 1016.9 hPa | 0 mm | 0 m/s | 0 W/m² | - |
| 1787855237 | 21.67° C | 48% | 1017.1 hPa | 0 mm | 0.89 m/s, 40° | 0 W/m² | - |
| 1787855176 | 21.67° C | 48% | 1016.9 hPa | 0 mm | 0.89 m/s, 83° | 0 W/m² | - |
| 1787855116 | 21.67° C | 48% | 1017 hPa | 0 mm | 0.45 m/s, 33° | 0 W/m² | - |
| 1787855056 | 21.67° C | 49% | 1016.9 hPa | 0 mm | 0.45 m/s, 106° | 0 W/m² | - |
| 1787854996 | 21.67° C | 48% | 1017.1 hPa | 0 mm | 0.45 m/s, 24° | 0 W/m² | - |
| 1787854936 | 21.67° C | 48% | 1016.9 hPa | 0 mm | 0.45 m/s, 104° | 0 W/m² | - |
| 1787854876 | 21.67° C | 48% | 1017.1 hPa | 0 mm | 0.45 m/s, 79° | 0 W/m² | - |
| 1787854816 | 21.11° C | 47% | 1017 hPa | 0 mm | 0.89 m/s, 66° | 0 W/m² | - |
| 1787854756 | 21.11° C | 48% | 1016.9 hPa | 0 mm | 0 m/s | 1 W/m² | - |
| 1787854696 | 21.11° C | 48% | 1017.2 hPa | 0 mm | 0.45 m/s, 47° | 1 W/m² | - |
| 1787854636 | 21.11° C | 48% | 1017.2 hPa | 0 mm | 0.45 m/s, 341° | 1 W/m² | - |
| 1787854576 | 21.11° C | 48% | 1017.1 hPa | 0 mm | 0.89 m/s, 95° | 1 W/m² | - |
| 1787854516 | 21.11° C | 49% | 1017.1 hPa | 0 mm | 0.89 m/s, 84° | 1 W/m² | - |
| 1787854456 | 21.67° C | 48% | 1017 hPa | 0 mm | 0.45 m/s, 46° | 1 W/m² | - |
| 1787854396 | 21.67° C | 48% | 1016.9 hPa | 0 mm | 0 m/s | 1 W/m² | - |
| 1787854336 | 21.67° C | 48% | 1016.9 hPa | 0 mm | 0 m/s | 1 W/m² | - |
| 1787854276 | 21.67° C | 48% | 1017.1 hPa | 0 mm | 0.45 m/s, 109° | 1 W/m² | - |
| 1787854216 | 21.67° C | 48% | 1016.8 hPa | 0 mm | 0.45 m/s, 77° | 2 W/m² | - |
| 1787854156 | 21.67° C | 48% | 1017 hPa | 0 mm | 0 m/s | 2 W/m² | - |
| 1787854096 | 21.67° C | 47% | 1016.8 hPa | 0 mm | 0.89 m/s, 60° | 2 W/m² | - |
| 1787854036 | 21.67° C | 48% | 1016.8 hPa | 0 mm | 0.45 m/s, 66° | 2 W/m² | - |
* Rain latest hour (hover to see other rain measurements)
** Current wind speed in m/s (hover to see current wind gust speed)